When you browse on this site, cookies collect data to enhance your experience and personalize the content and advertising you see.
Visit our Privacy Policy to learn more. By continuing to use the site, you agree to this use of cookies and data.
  • In United Kingdom
  • List of Countries
  • For 7 days
  • Water Temperature
  • Satellite Maps
  • Weather Map
  • Weather Widgets
  • user-avatar
    Login

    Hourly Weather Kankan

    Today, 17 November, Saturday

    Time Temperature Precipitation Wind Pressure Humidity
    00:00 +22°C° 0 mm 1 mps 685 mmHg 26%
    01:00 +22°C° 0 mm 1 mps 685 mmHg 25%
    02:00 +21°C° 0 mm 1 mps 685 mmHg 26%
    03:00 +21°C° 0 mm 1 mps 685 mmHg 27%
    04:00 +21°C° 0 mm 1 mps 685 mmHg 28%
    05:00 +21°C° 0 mm 1 mps 685 mmHg 29%
    06:00 +21°C° 0 mm 1 mps 685 mmHg 30%
    07:00 +21°C° 0 mm 1 mps 686 mmHg 31%
    08:00 +24°C° 0 mm 1 mps 686 mmHg 27%
    09:00 +27°C° 0 mm 1 mps 687 mmHg 23%
    10:00 +30°C° 0 mm 2 mps 688 mmHg 19%
    11:00 +31°C° 0 mm 2 mps 687 mmHg 18%
    12:00 +34°C° 0 mm 2 mps 687 mmHg 17%
    13:00 +35°C° 0 mm 1 mps 687 mmHg 16%
    14:00 +35°C° 0 mm 1 mps 686 mmHg 16%
    15:00 +34°C° 0 mm 1 mps 685 mmHg 17%
    16:00 +34°C° 0 mm 1 mps 685 mmHg 17%
    17:00 +32°C° 0 mm 1 mps 685 mmHg 20%
    18:00 +29°C° 0 mm 1 mps 685 mmHg 23%
    19:00 +27°C° 0 mm 1 mps 684 mmHg 25%
    20:00 +26°C° 0 mm 1 mps 685 mmHg 26%
    21:00 +26°C° 0 mm 1 mps 685 mmHg 27%
    22:00 +25°C° 0 mm 1 mps 685 mmHg 29%
    23:00 +25°C° 0 mm 1 mps 685 mmHg 29%

    Tomorrow, 18 November, Sunday

    Time Temperature Precipitation Wind Pressure Humidity
    00:00 +24°C° 0 mm 1 mps 685 mmHg 30%
    01:00 +24°C° 0 mm 1 mps 685 mmHg 31%
    02:00 +23°C° 0 mm 1 mps 685 mmHg 32%
    03:00 +23°C° 0 mm 1 mps 684 mmHg 32%
    04:00 +20°C° 0 mm 0 mps 684 mmHg 33%
    05:00 +22°C° 0 mm 1 mps 684 mmHg 33%
    06:00 +22°C° 0 mm 1 mps 684 mmHg 34%
    07:00 +22°C° 0 mm 1 mps 685 mmHg 35%
    08:00 +25°C° 0 mm 1 mps 686 mmHg 30%
    09:00 +28°C° 0 mm 1 mps 687 mmHg 25%
    10:00 +32°C° 0 mm 2 mps 688 mmHg 20%
    11:00 +34°C° 0 mm 2 mps 687 mmHg 19%
    12:00 +35°C° 0 mm 2 mps 686 mmHg 17%
    13:00 +36°C° 0 mm 2 mps 686 mmHg 16%
    14:00 +36°C° 0 mm 2 mps 685 mmHg 16%
    15:00 +36°C° 0 mm 2 mps 685 mmHg 16%
    16:00 +36°C° 0 mm 2 mps 684 mmHg 16%
    17:00 +34°C° 0 mm 2 mps 684 mmHg 18%
    18:00 +30°C° 0 mm 1 mps 684 mmHg 21%
    19:00 +28°C° 0 mm 1 mps 684 mmHg 23%
    20:00 +27°C° 0 mm 1 mps 684 mmHg 24%
    21:00 +26°C° 0 mm 1 mps 684 mmHg 25%
    22:00 +25°C° 0 mm 1 mps 685 mmHg 26%
    23:00 +25°C° 0 mm 1 mps 685 mmHg 27%

    Day after tomorrow, 19 November, Monday

    Time Temperature Precipitation Wind Pressure Humidity
    00:00 +24°C° 0 mm 1 mps 684 mmHg 28%
    01:00 +24°C° 0 mm 1 mps 684 mmHg 28%
    02:00 +23°C° 0 mm 1 mps 684 mmHg 29%
    03:00 +23°C° 0 mm 1 mps 684 mmHg 29%
    04:00 +22°C° 0 mm 1 mps 683 mmHg 30%
    05:00 +22°C° 0 mm 1 mps 684 mmHg 30%
    06:00 +22°C° 0 mm 1 mps 684 mmHg 31%
    07:00 +22°C° 0 mm 1 mps 684 mmHg 31%
    08:00 +25°C° 0 mm 1 mps 685 mmHg 27%
    09:00 +29°C° 0 mm 2 mps 686 mmHg 22%
    10:00 +32°C° 0 mm 2 mps 687 mmHg 17%
    11:00 +34°C° 0 mm 3 mps 687 mmHg 16%
    12:00 +35°C° 0 mm 3 mps 686 mmHg 15%
    13:00 +36°C° 0 mm 3 mps 686 mmHg 14%
    14:00 +36°C° 0 mm 3 mps 685 mmHg 14%
    15:00 +36°C° 0 mm 2 mps 684 mmHg 14%
    16:00 +36°C° 0 mm 2 mps 683 mmHg 14%
    17:00 +34°C° 0 mm 2 mps 683 mmHg 17%
    18:00 +30°C° 0 mm 1 mps 683 mmHg 19%
    19:00 +28°C° 0 mm 1 mps 683 mmHg 21%
    20:00 +27°C° 0 mm 1 mps 684 mmHg 22%
    21:00 +27°C° 0 mm 1 mps 684 mmHg 23%
    22:00 +26°C° 0 mm 1 mps 684 mmHg 24%
    23:00 +25°C° 0 mm 1 mps 684 mmHg 25%

    20 November, Tuesday

    Time Temperature Precipitation Wind Pressure Humidity
    00:00 +23°C° 0 mm 0 mps 684 mmHg 26%
    01:00 +22°C° 0 mm 0 mps 684 mmHg 26%
    02:00 +22°C° 0 mm 0 mps 684 mmHg 27%
    03:00 +21°C° 0 mm 0 mps 683 mmHg 27%
    04:00 +20°C° 0 mm 0 mps 683 mmHg 28%
    05:00 +22°C° 0 mm 1 mps 683 mmHg 28%
    06:00 +22°C° 0 mm 1 mps 684 mmHg 28%
    07:00 +22°C° 0 mm 1 mps 684 mmHg 27%
    08:00 +26°C° 0 mm 1 mps 685 mmHg 23%
    09:00 +29°C° 0 mm 2 mps 686 mmHg 19%
    10:00 +32°C° 0 mm 2 mps 687 mmHg 15%
    11:00 +35°C° 0 mm 2 mps 687 mmHg 14%
    12:00 +36°C° 0 mm 3 mps 686 mmHg 13%
    13:00 +37°C° 0 mm 3 mps 686 mmHg 13%
    14:00 +37°C° 0 mm 3 mps 685 mmHg 13%
    15:00 +37°C° 0 mm 3 mps 685 mmHg 13%
    16:00 +37°C° 0 mm 3 mps 684 mmHg 13%
    17:00 +34°C° 0 mm 2 mps 684 mmHg 15%
    18:00 +31°C° 0 mm 2 mps 684 mmHg 17%
    19:00 +28°C° 0 mm 1 mps 684 mmHg 19%
    20:00 +27°C° 0 mm 1 mps 684 mmHg 19%
    21:00 +26°C° 0 mm 1 mps 685 mmHg 20%
    22:00 +25°C° 0 mm 1 mps 685 mmHg 20%
    23:00 +25°C° 0 mm 1 mps 685 mmHg 20%

    21 November, Wednesday

    Time Temperature Precipitation Wind Pressure Humidity
    00:00 +24°C° 0 mm 1 mps 684 mmHg 20%
    01:00 +23°C° 0 mm 1 mps 684 mmHg 19%
    02:00 +23°C° 0 mm 1 mps 684 mmHg 19%
    03:00 +23°C° 0 mm 1 mps 684 mmHg 19%
    04:00 +22°C° 0 mm 1 mps 683 mmHg 18%
    05:00 +22°C° 0 mm 1 mps 684 mmHg 18%
    06:00 +22°C° 0 mm 1 mps 684 mmHg 19%
    07:00 +23°C° 0 mm 1 mps 685 mmHg 19%
    08:00 +26°C° 0 mm 1 mps 685 mmHg 16%
    09:00 +29°C° 0 mm 2 mps 686 mmHg 14%
    10:00 +32°C° 0 mm 2 mps 687 mmHg 11%
    11:00 +34°C° 0 mm 2 mps 686 mmHg 11%
    12:00 +36°C° 0 mm 2 mps 686 mmHg 10%
    13:00 +37°C° 0 mm 2 mps 685 mmHg 10%
    14:00 +37°C° 0 mm 2 mps 685 mmHg 10%
    15:00 +37°C° 0 mm 2 mps 684 mmHg 10%
    16:00 +36°C° 0 mm 2 mps 684 mmHg 11%
    17:00 +34°C° 0 mm 2 mps 684 mmHg 13%
    18:00 +30°C° 0 mm 2 mps 684 mmHg 14%
    19:00 +28°C° 0 mm 1 mps 684 mmHg 16%
    20:00 +27°C° 0 mm 1 mps 684 mmHg 17%
    21:00 +26°C° 0 mm 1 mps 684 mmHg 18%
    22:00 +25°C° 0 mm 1 mps 684 mmHg 19%
    23:00 +25°C° 0 mm 1 mps 684 mmHg 20%

    22 November, Thursday

    Time Temperature Precipitation Wind Pressure Humidity
    00:00 +24°C° 0 mm 1 mps 684 mmHg 20%
    01:00 +24°C° 0 mm 1 mps 684 mmHg 21%
    02:00 +23°C° 0 mm 1 mps 684 mmHg 22%
    03:00 +22°C° 0 mm 1 mps 683 mmHg 22%
    04:00 +22°C° 0 mm 1 mps 683 mmHg 23%
    05:00 +20°C° 0 mm 0 mps 684 mmHg 23%
    06:00 +20°C° 0 mm 0 mps 684 mmHg 24%
    07:00 +19°C° 0 mm 0 mps 685 mmHg 24%
    08:00 +25°C° 0 mm 1 mps 685 mmHg 20%
    09:00 +28°C° 0 mm 1 mps 686 mmHg 16%
    10:00 +31°C° 0 mm 2 mps 687 mmHg 12%
    11:00 +32°C° 0 mm 2 mps 686 mmHg 12%
    12:00 +34°C° 0 mm 2 mps 686 mmHg 11%
    13:00 +36°C° 0 mm 3 mps 685 mmHg 10%
    14:00 +36°C° 0 mm 3 mps 684 mmHg 11%
    15:00 +36°C° 0 mm 2 mps 684 mmHg 11%
    16:00 +36°C° 0 mm 2 mps 683 mmHg 11%
    17:00 +32°C° 0 mm 2 mps 683 mmHg 13%
    18:00 +30°C° 0 mm 1 mps 683 mmHg 15%
    19:00 +27°C° 0 mm 1 mps 683 mmHg 17%
    20:00 +26°C° 0 mm 1 mps 683 mmHg 18%
    21:00 +26°C° 0 mm 1 mps 684 mmHg 18%
    22:00 +25°C° 0 mm 1 mps 684 mmHg 19%
    23:00 +24°C° 0 mm 1 mps 684 mmHg 20%
    Show more